This demonstration page uses our WeatherBlox Daily Observations layout. Learn more.

Left ArrowRight Arrow

Hourly Observations for January 23, 2017

Temp ( °F °C ) Dew Point ( °F °C ) Humidity (%) Winds ( mph kmh ) Pressure ( in mb ) Visibility ( mi km ) Precip ( " mm )
12:53 am 00:53 Clear 40 4.4 28 -2.2 63 63 WSW 6 9 29.98 1015 10 16 0.00 0.00
1:53 am 01:53 Clear 42 5.6 28 -2.2 58 58 WSW 3 6 29.97 1015 10 16 0.00 0.00
2:53 am 02:53 Clear 38 3.3 29 -1.7 70 70 Calm 29.96 1015 10 16 0.00 0.00
3:53 am 03:53 Clear 36 2.2 28 -2.2 73 73 Calm 29.95 1014 10 16 0.00 0.00
4:53 am 04:53 Clear 33 0.6 29 -1.7 85 85 N 5 7 29.95 1014 10 16 0.00 0.00
5:53 am 05:53 Clear 32 0 28 -2.2 85 85 NNW 6 9 29.94 1014 10 16 0.00 0.00
6:53 am 06:53 Clear 32 0 28 -2.2 85 85 Calm 29.96 1015 10 16 0.00 0.00
7:53 am 07:53 Sunny 33 0.6 28 -2.2 82 82 S 5 7 29.95 1014 10 16 0.00 0.00
8:43 am 08:43 Mostly Sunny 39 3.9 30 -1.1 70 70 SE 5 7 30.03 1017 10 16 0.00 0.00
8:53 am 08:53 Mostly Sunny 41 5 31 -0.6 67 67 S 5 7 29.94 1014 10 16 0.00 0.00
9:53 am 09:53 Sunny 60 15.6 32 0 35 35 WSW 20 31 29.90 1013 10 16 0.00 0.00
10:53 am 10:53 Sunny 63 17.2 32 0 31 31 SW 14 22 29.92 1013 10 16 0.00 0.00
11:53 am 11:53 Sunny 64 17.8 32 0 30 30 W 12 19 29.90 1013 10 16 0.00 0.00
12:53 pm 12:53 Sunny 68 20 32 0 26 26 WSW 14 22 29.85 1011 10 16 0.00 0.00
1:53 pm 13:53 Sunny 74 23.3 25 -3.9 16 16 W 16 26 29.79 1009 10 16 0.00 0.00
2:53 pm 14:53 Sunny 75 23.9 25 -3.9 15 15 W 22 35 29.75 1007 10 16 0.00 0.00
3:53 pm 15:53 Sunny 75 24 25 -4 15 15 W 18 30 29.65 1004 10 16 0.00 0.00
4:53 pm 16:53 Sunny 76 24.4 24 -4.4 14 14 WSW 20 31 29.71 1006 10 16 0.00 0.00
5:53 pm 17:53 Sunny 73 22.8 26 -3.3 17 17 W 12 19 29.70 1006 10 16 0.00 0.00
6:53 pm 18:53 Clear 63 17.2 29 -1.7 28 28 S 5 7 29.70 1006 10 16 0.00 0.00
7:53 pm 19:53 Clear 61 16.1 28 -2.2 29 29 WSW 8 13 29.71 1006 10 16 0.00 0.00
8:53 pm 20:53 Clear 56 13.3 30 -1.1 37 37 SSW 3 6 29.70 1006 10 16 0.00 0.00
9:53 pm 21:53 Clear 52 11.1 32 0 47 47 SSW 9 15 29.67 1005 10 16 0.00 0.00
10:53 pm 22:53 Clear 52 11.1 32 0 47 47 ESE 7 11 29.65 1004 10 16 0.00 0.00
11:53 pm 23:53 Clear 52 11.1 33 0.6 49 49 SE 10 17 29.63 1003 10 16 0.00 0.00

Powered by AerisWeather